This is the latest recevied weather packets stored in our database for station/object W8KVG. If no packets are shown the sender has not sent any weather packets the latest 10 day(s).
| Time | Temp. | Humidity | Pressure | Rain* | Wind** | Luminosity | Snow |
|---|---|---|---|---|---|---|---|
| 1778096249 | 12.22° C | 72% | 1010.1 hPa | 0 mm | - | 65 W/m² | - |
| 1778095945 | 12.22° C | 71% | 1010.2 hPa | 0 mm | - | 93 W/m² | - |
| 1778095642 | 12.22° C | 74% | 1010.1 hPa | 0 mm | - | 119 W/m² | - |
| 1778095338 | 12.22° C | 75% | 1010.1 hPa | 0 mm | - | 152 W/m² | - |
| 1778095035 | 11.67° C | 79% | 1010.1 hPa | 0 mm | - | 104 W/m² | - |
| 1778094731 | 11.67° C | 78% | 1010.1 hPa | 0 mm | - | 103 W/m² | - |
| 1778094429 | 11.67° C | 78% | 1009.9 hPa | 0 mm | - | 106 W/m² | - |
| 1778094125 | 11.67° C | 78% | 1010.1 hPa | 0 mm | - | 69 W/m² | - |
| 1778093823 | 11.67° C | 80% | 1010.1 hPa | 0 mm | - | 49 W/m² | - |
| 1778093518 | 12.22° C | 82% | 1009.9 hPa | 0 mm | - | 34 W/m² | - |
| 1778093211 | 12.78° C | 81% | 1010 hPa | 0 mm | - | 43 W/m² | - |
| 1778092908 | 13.33° C | 79% | 1010 hPa | 0 mm | - | 109 W/m² | - |
| 1778092604 | 13.33° C | 80% | 1009.6 hPa | 0 mm | - | 316 W/m² | - |
| 1778092300 | 12.22° C | 83% | 1009.7 hPa | 0 mm | - | 361 W/m² | - |
| 1778091998 | 11.67° C | 86% | 1009.5 hPa | 0 mm | - | 174 W/m² | - |
| 1778091694 | 11.11° C | 86% | 1009.6 hPa | 0 mm | - | 104 W/m² | - |
| 1778091392 | 11.11° C | 85% | 1010 hPa | 0 mm | - | 99 W/m² | - |
| 1778091089 | 11.67° C | 85% | 1009.6 hPa | 0 mm | - | 93 W/m² | - |
| 1778090786 | 11.67° C | 87% | 1010 hPa | 0 mm | - | 85 W/m² | - |
| 1778090483 | 11.67° C | 86% | 1009.7 hPa | 0 mm | - | 77 W/m² | - |
| 1778090179 | 11.67° C | 86% | 1009.9 hPa | 0 mm | - | 60 W/m² | - |
| 1778089875 | 11.67° C | 87% | 1009.9 hPa | 0 mm | - | 65 W/m² | - |
| 1778089574 | 11.67° C | 85% | 1009.7 hPa | 0 mm | - | 89 W/m² | - |
| 1778089270 | 11.67° C | 84% | 1009.4 hPa | 0 mm | - | 124 W/m² | - |
| 1778088968 | 11.67° C | 87% | 1009.5 hPa | 0 mm | - | 122 W/m² | - |
* Rain latest hour (hover to see other rain measurements)
** Current wind speed in m/s (hover to see current wind gust speed)